Location: Austin
(30.3000°N, 97.7500°W)
Time: 00:14:50
(UTC-05:00)

ADEOS - Pass Details

Date: 06 May 2026
Orbit: 790 x 791 km, 98.8° (Epoch: 13 May)

Event Time Altitude Azimuth Distance (km) Brightness Sun altitude
Exits shadow 21:34:26 27° 111° (ESE) 1,469 4.4 -16.8°
Maximum altitude 21:36:16 36° 71° (ENE) 1,242 4.3 -17.1°
Drops below altitude 10° 21:40:59 10° 7° (N) 2,358 6.3 -18.0°
Sets 21:43:28 0° 359° (N) 3,290 7.3 -18.4°
